Retour au catalogue

STARLINK-4532

ActifCommunicationsVLEO
NORAD 53424·PAYLOAD·🇺🇸 United States

Lancé Aug 10, 2022 depuis Cape Canaveral Space Force Station

Loading…

Prochains Passages (prochaines 24 heures)

TLE

FraisSource: CelesTrak SupGP

Époque: Sep 14, 2026, 19:51 UTC

1 53424C 22097AN  26257.82756944 -.00033365  00000+0 -10729-2 0  2574
2 53424  53.1568 333.2320 0000919  89.4612 196.5674 15.31718465    13

Suivez STARLINK-4532 en temps réel avec AllMySat

Download on the App Store